FLOCK 2K-48 (42855 NORAD) Tracking and Keplerian Element Data

This shows tracking and keplerian element data for the satellite.

Feedback or suggestion? Click here.




ElementValue
Catalog42855
NameFLOCK 2K-48
Epoch Orbit3280
Epoch Day45.52754163
Epoch Year2018
RAAN308.2887
Inclination96.9925
Eccentricity0.0009927
Argument of Perigee187.0696
Mean Anonmoly173.0411
Mean Motion15.35633428
Decay Rate7.897E-05
L11 42855U 17042AG 18045.52754163 .00007897 00000-0 22975-3 0 9998
L22 42855 96.9925 308.2887 0009927 187.0696 173.0411 15.35633428 32806

Live tracking and technical data element details for FLOCK 2K-48 (NORAD 42855). FLOCK 2K-48 can be tracked NOW for your location showing map with azimuth and elevation plus other details from your city location.

Track the satellite on the map from your city or location and see movement details for azimuth, elevation, latitude, longitude, range, height, and movement on the map or in text.







IsCatalogInMostPopularTable: catalog: 42855, numindb: 120
Update: records affected: 1



GetName: 42855 FLOCK 2K-48

Hit Count: updated at: Sun, 16 Dec 2018 11:46:53 GMT